Location: Newark
(34.1333°N, 7.9667°W)
Time: 15:07:57
(UTC+00:00)

Vanguard 2 Rocket - Pass Details

Date: 06 August 2021
Orbit: 556 x 3324 km, 32.9° (Epoch: 20 September)

Event Time Altitude Azimuth Distance (km) Brightness Sun altitude
Exits shadow 05:13:38 - 230° (SW) 3,445 9.2 -7.1°
Reaches altitude 10° 05:14:40 10° 228° (SW) 3,060 9.0 -6.9°
Maximum altitude 05:20:57 37° 163° (SSE) 1,237 7.6 -5.8°
Drops below altitude 10° 05:25:11 10° 95° (E) 2,046 9.9 -5.0°
Sets 05:27:17 0° 86° (E) 2,829 11.1 -4.6°
